カタログに戻る

FENGYUN 1C DEB *

運用中PO
NORAD 46995·DEBRIS·🇨🇳 China

打ち上げ May 10, 1999 から Taiyuan Satellite Launch Center

Loading…

次のパス (今後24時間)

TLE

古いSource: Space-Track

元期: Sep 1, 2026, 15:24 UTC

1 46995U 99025EZV 26244.64200183  .00001238  00000-0  93763-3 0  9995
2 46995  98.5899 310.6056 0186553 117.5876 244.4367 13.87724921641136

AllMySatでFENGYUN 1C DEB *をリアルタイム追跡

Download on the App Store